[[{"header":{"parameterUnit":"m.s-1","parameterCategory":1,"la1":30.2991,"la2":30.254,"lo1":-89.0895,"lo2":-89.0444,"dy":0.0017,"dx":0.0017,"nx":28,"ny":28,"refTime":"2024-12-18T09:00:00:Z","depth":0,"parameterNumber":2,"parameterNumberName":"U-component_of_WINDS"},"data":[0,0,0,0,0,0,0,0,0,0,0,0,0,0,0,0,0,0,0,0,0,0,0,0,0,0,0,0,0,0,0,0,0,0,0,0,0,0,0,0,0,0,0,0,0,0,0,0,0,0,0,0,0,0,0,0,0,0,-0.1918,-0.1919,0,-0.1956,-0.1957,-0.1957,-0.1965,-0.1965,-0.1964,-0.1964,-0.2003,-0.2004,-0.2005,0,0,0,0,0,0,0,0,0,0,0,0,0,-0.1851,-0.1853,-0.1918,-0.1919,-0.1919,-0.1956,-0.1957,-0.1957,-0.1965,-0.1965,-0.1964,-0.1964,-0.2002,-0.2004,-0.2006,0,0,0,0,0,0,0,0,0,0,0,0,0,-0.1884,-0.1853,-0.1918,-0.1928,-0.1929,-0.1956,-0.1957,-0.1958,-0.1965,-0.1965,-0.1964,-0.1964,-0.2002,-0.2004,-0.2006,-0.2027,0,0,-0.2012,-0.2013,0,0,0,0,0,0,0,0,-0.1882,-0.1886,-0.1926,-0.1927,-0.1928,-0.1955,-0.1947,-0.1981,-0.1965,-0.1951,-0.1964,-0.1964,-0.1987,-0.1991,-0.1999,-0.2028,-0.203,-0.2012,-0.2013,-0.2014,-0.2014,0,0,0,0,0,0,0,-0.188,-0.1885,-0.1933,-0.1926,-0.1928,-0.193,-0.1934,-0.1954,-0.1971,-0.1952,-0.1953,-0.1957,-0.1988,-0.1997,-0.2,-0.2031,-0.2012,-0.2014,-0.2015,-0.2016,-0.2079,-0.2079,0,0,0,0,0,0,-0.1876,-0.1883,-0.1932,-0.1935,-0.1904,-0.1931,-0.1936,-0.1947,-0.1971,-0.1974,-0.1958,-0.1958,-0.1994,-0.1997,-0.2001,-0.2027,-0.2014,-0.2016,-0.2017,-0.2078,-0.2079,-0.208,0,0,0,0,0,0,-0.1875,-0.188,-0.1931,-0.1909,-0.1915,-0.1933,-0.1946,-0.1948,-0.1957,-0.1975,-0.1978,-0.1964,-0.1993,-0.1998,-0.202,-0.2028,-0.2017,-0.2018,-0.2078,-0.2079,-0.2079,-0.2079,0,0,0,0,0,0,-0.1873,-0.188,-0.1888,-0.1909,-0.1917,-0.1949,-0.1946,-0.1949,-0.196,-0.1961,-0.1981,-0.1984,-0.1993,-0.2017,-0.2022,-0.2031,-0.202,-0.2077,-0.2078,-0.2079,-0.2079,-0.208,-0.2081,0,0,0,0,0,-0.187,-0.1887,-0.1889,-0.1895,-0.1927,-0.195,-0.1954,-0.1964,-0.1961,-0.1969,-0.1981,-0.1984,-0.2026,-0.2019,-0.2025,-0.2035,-0.2077,-0.2078,-0.2079,-0.2078,-0.208,-0.2081,0,0,0,0,0,0,-0.1867,-0.189,-0.1892,-0.1916,-0.1931,-0.1951,-0.1962,-0.1966,-0.1982,-0.1982,-0.1993,-0.1998,-0.2019,-0.2029,-0.202,-0.2056,-0.2051,-0.2054,-0.2049,-0.205,-0.2052,-0.2049,-0.2022,0,0,0,0,0,-0.1868,-0.1885,-0.1904,-0.1923,-0.1931,-0.1945,-0.1955,-0.1962,-0.1978,-0.1984,-0.1997,-0.2012,-0.2029,-0.204,-0.2057,-0.208,-0.2084,-0.2089,-0.209,-0.2091,-0.2093,-0.2106,-0.2108,-0.2083,-0.2083,-0.2083,0,0,-0.1873,-0.1887,-0.1897,-0.1923,-0.1935,-0.1952,-0.195,-0.1968,-0.1981,-0.1987,-0.2008,-0.2018,-0.2036,-0.2058,-0.2069,-0.2067,-0.2101,-0.2092,-0.2093,-0.2095,-0.2107,-0.2109,-0.2111,-0.2084,-0.2084,-0.2084,0,0,-0.1889,-0.1902,-0.1919,-0.1931,-0.195,-0.1959,-0.1963,-0.1983,-0.199,-0.2012,-0.2017,-0.2031,-0.206,-0.2072,-0.2082,-0.2102,-0.2105,-0.2107,-0.2114,-0.2126,-0.2128,-0.213,-0.2137,-0.2139,-0.2109,-0.2109,-0.2109,0,-0.1892,-0.1918,-0.1927,-0.1945,-0.1956,-0.1962,-0.1979,-0.1991,-0.2014,-0.2021,-0.2019,-0.2055,-0.2067,-0.2092,-0.2097,-0.2105,-0.211,-0.2105,-0.2127,-0.2129,-0.2131,-0.2138,-0.214,-0.2109,-0.2109,-0.2109,-0.2109,0,-0.192,-0.1938,-0.195,-0.1972,-0.1984,-0.2001,-0.2013,-0.2024,-0.2029,-0.2039,-0.206,-0.2075,-0.2095,-0.2101,-0.2106,-0.2127,-0.2125,-0.2125,-0.2121,-0.2133,-0.214,-0.2143,-0.2109,-0.2109,-0.2109,-0.2109,0,0,-0.1937,-0.1964,-0.1968,-0.1978,-0.1998,-0.2012,-0.2029,-0.2048,-0.2057,-0.2072,-0.2087,-0.2111,-0.211,-0.2122,-0.2128,-0.2138,-0.2153,-0.2137,-0.2137,-0.214,-0.2177,-0.2178,-0.2181,-0.2155,-0.2155,-0.2156,-0.2176,0,-0.1956,-0.1988,-0.1996,-0.2023,-0.2039,-0.2044,-0.2059,-0.2073,-0.2082,-0.2097,-0.2106,-0.2123,-0.2121,-0.2128,-0.2138,-0.2149,-0.2161,-0.2148,-0.2169,-0.2169,-0.2165,-0.2184,-0.2185,-0.2203,-0.2178,-0.2179,-0.2179,0,-0.1983,-0.1999,-0.2027,-0.2045,-0.2052,-0.2066,-0.2083,-0.2097,-0.2113,-0.2119,-0.2131,-0.2136,-0.2153,-0.2148,-0.2172,-0.2163,-0.2172,-0.2178,-0.2179,-0.2182,-0.2176,-0.2188,-0.2209,-0.2212,-0.2183,-0.2183,-0.2183,0,-0.1993,-0.2021,-0.2041,-0.205,-0.2071,-0.208,-0.209,-0.2105,-0.2115,-0.2131,-0.2138,-0.2155,-0.2164,-0.2177,-0.2186,-0.2181,-0.221,-0.2205,-0.2215,-0.2215,-0.2222,-0.2221,-0.2245,-0.2226,-0.2226,-0.2226,-0.2226,0,-0.2014,-0.2031,-0.2046,-0.2059,-0.2078,-0.2087,-0.2106,-0.2115,-0.2128,-0.2142,-0.2148,-0.2161,-0.2172,-0.2186,-0.2194,-0.2213,-0.2217,-0.2222,-0.2224,-0.2222,-0.2221,-0.2228,-0.2228,-0.2227,-0.2227,-0.2227,-0.2226,0,-0.2028,-0.2039,-0.2062,-0.208,-0.2085,-0.2098,-0.2113,-0.2126,-0.2134,-0.2152,-0.2157,-0.217,-0.2187,-0.2198,-0.2219,-0.2224,-0.2245,-0.2246,-0.224,-0.2241,-0.2251,-0.225,-0.2281,-0.2285,-0.2263,-0.2263,-0.2263,0,-0.2042,-0.2055,-0.2074,-0.2084,-0.2094,-0.211,-0.212,-0.213,-0.2141,-0.2159,-0.2169,-0.2186,-0.2201,-0.2228,-0.224,-0.2256,-0.2258,-0.2268,-0.2261,-0.2258,-0.2259,-0.2258,-0.226,-0.2269,-0.2269,-0.2269,-0.227,0,-0.2064,-0.2068,-0.2084,-0.2101,-0.2114,-0.2128,-0.2142,-0.2149,-0.2161,-0.2173,-0.2191,-0.2202,-0.2224,-0.2241,-0.2259,-0.2268,-0.2271,-0.2271,-0.2275,-0.2274,-0.227,-0.2272,-0.2244,-0.2271,-0.2271,-0.2271,-0.2271,-0.2271,-0.2079,-0.2091,-0.2106,-0.2123,-0.2134,-0.2147,-0.2159,-0.2169,-0.2184,-0.2203,-0.2207,-0.2226,-0.224,-0.2264,-0.2273,-0.2288,-0.2286,-0.2291,-0.2292,-0.2293,-0.2294,-0.2267,-0.2291,-0.2291,-0.2291,-0.2291,-0.229,0,-0.2102,-0.2112,-0.2127,-0.2146,-0.2159,-0.2161,-0.2176,-0.2187,-0.2203,-0.2216,-0.223,-0.225,-0.2267,-0.2279,-0.2296,-0.2305,-0.2307,-0.2309,-0.2309,-0.2311,-0.2294,-0.229,-0.2308,-0.2308,-0.2308,-0.2308,-0.2308,-0.2308,-0.2115,-0.2136,-0.2142,-0.2167,-0.2177,-0.2195,-0.2204,-0.2215,-0.2226,-0.2248,-0.2262,-0.227,-0.2283,-0.23,-0.2315,-0.2318,-0.2325,-0.2327,-0.233,-0.2314,-0.2312,-0.2311,-0.2307,-0.2328,-0.2328,-0.2346,-0.2347,-0.2347]},{"header":{"parameterUnit":"m.s-1","parameterCategory":1,"la1":30.2991,"la2":30.254,"lo1":-89.0895,"lo2":-89.0444,"dy":0.0017,"dx":0.0017,"nx":28,"ny":28,"refTime":"2024-12-18T09:00:00:Z","depth":0,"parameterNumber":3,"parameterNumberName":"V-component_of_WINDS"},"data":[0,0,0,0,0,0,0,0,0,0,0,0,0,0,0,0,0,0,0,0,0,0,0,0,0,0,0,0,0,0,0,0,0,0,0,0,0,0,0,0,0,0,0,0,0,0,0,0,0,0,0,0,0,0,0,0,0,0,-4.6079,-4.6081,0,-4.6214,-4.6216,-4.6217,-4.6222,-4.6221,-4.6219,-4.6218,-4.635,-4.6355,-4.636,0,0,0,0,0,0,0,0,0,0,0,0,0,-4.5821,-4.5826,-4.6079,-4.6081,-4.6083,-4.6214,-4.6216,-4.6218,-4.6223,-4.6221,-4.6219,-4.6217,-4.6349,-4.6354,-4.6361,0,0,0,0,0,0,0,0,0,0,0,0,0,-4.5942,-4.5828,-4.6079,-4.6101,-4.6104,-4.6214,-4.6216,-4.6218,-4.6223,-4.6221,-4.6218,-4.6216,-4.6347,-4.6354,-4.6361,-4.6456,0,0,-4.6384,-4.6388,0,0,0,0,0,0,0,0,-4.5936,-4.5952,-4.6096,-4.61,-4.6104,-4.6199,-4.6174,-4.6298,-4.6224,-4.6178,-4.6218,-4.6215,-4.6302,-4.6313,-4.6343,-4.6462,-4.6468,-4.6385,-4.639,-4.6393,-4.6395,0,0,0,0,0,0,0,-4.5927,-4.5946,-4.6132,-4.6098,-4.6103,-4.6103,-4.6117,-4.6197,-4.6251,-4.6182,-4.6182,-4.6199,-4.6303,-4.6336,-4.6346,-4.647,-4.6385,-4.6392,-4.6396,-4.6399,-4.6676,-4.6679,0,0,0,0,0,0,-4.5915,-4.5939,-4.6128,-4.6136,-4.6012,-4.611,-4.6126,-4.6171,-4.6251,-4.626,-4.62,-4.6198,-4.6324,-4.6337,-4.6351,-4.6469,-4.6393,-4.64,-4.6404,-4.6674,-4.6677,-4.668,0,0,0,0,0,0,-4.591,-4.5932,-4.6123,-4.6038,-4.6063,-4.6117,-4.6167,-4.6175,-4.6208,-4.6265,-4.6274,-4.6224,-4.6323,-4.634,-4.6431,-4.6474,-4.6403,-4.641,-4.667,-4.6675,-4.6679,-4.6705,0,0,0,0,0,0,-4.5902,-4.593,-4.5967,-4.6039,-4.6067,-4.6202,-4.617,-4.6179,-4.6221,-4.622,-4.629,-4.6299,-4.6322,-4.642,-4.6438,-4.6483,-4.6416,-4.6667,-4.6672,-4.6677,-4.6701,-4.671,-4.6718,0,0,0,0,0,-4.5893,-4.5967,-4.5969,-4.5992,-4.6115,-4.6204,-4.622,-4.6247,-4.6225,-4.6262,-4.63,-4.6297,-4.6466,-4.6429,-4.645,-4.6497,-4.6664,-4.6671,-4.6677,-4.6697,-4.6708,-4.6717,0,0,0,0,0,0,-4.5896,-4.5977,-4.598,-4.608,-4.6136,-4.6205,-4.6253,-4.6257,-4.6319,-4.6315,-4.6344,-4.6359,-4.645,-4.6482,-4.644,-4.6595,-4.6562,-4.6573,-4.657,-4.6581,-4.659,-4.658,-4.6422,0,0,0,0,0,-4.5909,-4.5976,-4.6042,-4.6124,-4.6153,-4.6198,-4.6238,-4.6254,-4.6312,-4.6335,-4.6379,-4.6434,-4.65,-4.6542,-4.6605,-4.6705,-4.6721,-4.6748,-4.6757,-4.6763,-4.6773,-4.683,-4.6844,-4.6701,-4.6701,-4.6701,0,0,-4.5935,-4.5988,-4.6028,-4.6127,-4.6172,-4.624,-4.6218,-4.629,-4.6341,-4.6345,-4.6435,-4.6469,-4.6532,-4.6629,-4.6673,-4.6658,-4.6816,-4.6772,-4.6777,-4.6782,-4.6838,-4.6852,-4.6864,-4.6705,-4.6705,-4.6704,0,0,-4.6018,-4.6064,-4.6139,-4.6186,-4.6256,-4.6286,-4.6304,-4.6374,-4.6397,-4.6488,-4.6494,-4.6554,-4.6666,-4.6712,-4.675,-4.6854,-4.6854,-4.6873,-4.6917,-4.6973,-4.6984,-4.6995,-4.7033,-4.7047,-4.6882,-4.6882,-4.6882,0,-4.6042,-4.6147,-4.6176,-4.6251,-4.6294,-4.6305,-4.6381,-4.6423,-4.6509,-4.6539,-4.6521,-4.6665,-4.6708,-4.6816,-4.6842,-4.6872,-4.6894,-4.6865,-4.6981,-4.6991,-4.7001,-4.7038,-4.7053,-4.6884,-4.6884,-4.6884,-4.6884,0,-4.6173,-4.6246,-4.6297,-4.6384,-4.6433,-4.6507,-4.6548,-4.6594,-4.6607,-4.6639,-4.6732,-4.6784,-4.686,-4.6887,-4.6898,-4.6998,-4.6987,-4.6975,-4.6943,-4.7016,-4.7052,-4.7066,-4.6887,-4.6886,-4.6886,-4.6885,0,0,-4.626,-4.6365,-4.6384,-4.6424,-4.6503,-4.6559,-4.6634,-4.6711,-4.6751,-4.681,-4.6874,-4.697,-4.6961,-4.7004,-4.7021,-4.707,-4.7151,-4.7052,-4.7054,-4.707,-4.7266,-4.7276,-4.7292,-4.7152,-4.7155,-4.7157,-4.7261,0,-4.6353,-4.649,-4.6521,-4.6638,-4.6706,-4.6718,-4.6784,-4.6839,-4.6871,-4.6933,-4.6967,-4.7036,-4.7017,-4.7044,-4.7093,-4.7131,-4.7191,-4.7124,-4.7212,-4.7214,-4.7197,-4.731,-4.732,-4.7416,-4.7275,-4.7278,-4.7279,0,-4.648,-4.6546,-4.6671,-4.6744,-4.6774,-4.6833,-4.6907,-4.6966,-4.7029,-4.7049,-4.7099,-4.7112,-4.719,-4.7154,-4.7263,-4.7216,-4.7254,-4.7278,-4.7283,-4.7293,-4.7252,-4.7324,-4.7447,-4.7462,-4.7301,-4.7299,-4.7298,0,-4.6534,-4.6653,-4.6745,-4.6779,-4.6865,-4.6907,-4.6944,-4.7005,-4.7051,-4.7115,-4.7144,-4.7215,-4.7255,-4.7309,-4.7341,-4.7312,-4.7448,-4.7414,-4.7467,-4.7466,-4.7495,-4.7493,-4.7627,-4.7517,-4.7517,-4.7517,-4.7516,0,-4.6635,-4.6712,-4.6771,-4.6827,-4.6913,-4.6947,-4.7031,-4.7068,-4.7123,-4.7186,-4.7199,-4.7257,-4.7295,-4.7359,-4.7384,-4.7471,-4.7488,-4.7506,-4.7512,-4.7506,-4.7504,-4.7532,-4.7526,-4.7521,-4.752,-4.7519,-4.7518,0,-4.671,-4.6752,-4.6853,-4.6928,-4.6949,-4.7009,-4.7073,-4.7128,-4.7161,-4.7241,-4.7262,-4.7314,-4.739,-4.7427,-4.752,-4.7537,-4.7636,-4.7637,-4.7616,-4.7619,-4.767,-4.7665,-4.7827,-4.7851,-4.7724,-4.7725,-4.7726,0,-4.6772,-4.6832,-4.6915,-4.696,-4.7,-4.7071,-4.7118,-4.7154,-4.7202,-4.728,-4.7326,-4.7403,-4.7467,-4.7588,-4.7633,-4.7705,-4.7708,-4.776,-4.7719,-4.7712,-4.7711,-4.7708,-4.7715,-4.7768,-4.7769,-4.777,-4.7771,0,-4.6879,-4.6899,-4.6967,-4.7045,-4.7102,-4.7163,-4.7224,-4.7259,-4.7305,-4.7358,-4.7438,-4.7488,-4.7586,-4.7663,-4.7739,-4.7776,-4.7781,-4.7784,-4.78,-4.7795,-4.7781,-4.7791,-4.7638,-4.778,-4.7779,-4.7778,-4.7778,-4.7777,-4.6951,-4.7006,-4.7074,-4.7151,-4.7201,-4.7259,-4.7315,-4.7357,-4.7425,-4.7509,-4.7526,-4.7611,-4.7674,-4.7777,-4.7817,-4.7883,-4.7871,-4.7894,-4.79,-4.7906,-4.791,-4.777,-4.7896,-4.7896,-4.7896,-4.7896,-4.7896,0,-4.7061,-4.7106,-4.7177,-4.7263,-4.7324,-4.7327,-4.7395,-4.7445,-4.752,-4.758,-4.7644,-4.7736,-4.7812,-4.7864,-4.7941,-4.7984,-4.7988,-4.8003,-4.8,-4.8009,-4.7915,-4.7894,-4.7998,-4.7998,-4.7998,-4.7998,-4.7998,-4.7998,-4.7125,-4.7219,-4.7246,-4.7366,-4.741,-4.7496,-4.7534,-4.7587,-4.7636,-4.7739,-4.7803,-4.7838,-4.7895,-4.7976,-4.8046,-4.8059,-4.8087,-4.8102,-4.8115,-4.8026,-4.8015,-4.8005,-4.7986,-4.8107,-4.8107,-4.8204,-4.8205,-4.8206]}]]